Time,TemperatureF,DewpointF,PressureIn,WindDirection,WindDirectionDegrees,WindSpeedMPH,WindSpeedGustMPH,Humidity,HourlyPrecipIn,Conditions,Clouds,dailyrainin,SoftwareType,DateUTC
2013-09-06 00:01:00,72.5,67.7,30.04,NW,321,2.0,2.0,85,0.00,,,0.00,VWS V13.01,2013-09-06 04:01:00,
2013-09-06 00:06:00,72.4,67.6,30.04,NW,312,0.0,4.0,85,0.00,,,0.00,VWS V13.01,2013-09-06 04:06:00,
2013-09-06 00:11:00,72.3,67.9,30.04,NW,312,3.0,4.0,86,0.00,,,0.00,VWS V13.01,2013-09-06 04:11:00,
2013-09-06 00:16:00,72.3,67.9,30.04,NW,317,2.0,5.0,86,0.00,,,0.00,VWS V13.01,2013-09-06 04:16:00,
2013-09-06 00:21:00,72.4,68.0,30.04,NW,324,2.0,6.0,86,0.00,,,0.00,VWS V13.01,2013-09-06 04:21:00,
2013-09-06 00:26:00,72.5,67.7,30.04,NNW,334,2.0,5.0,85,0.00,,,0.00,VWS V13.01,2013-09-06 04:26:00,
2013-09-06 00:31:00,72.5,67.7,30.04,NW,306,2.0,4.0,85,0.00,,,0.00,VWS V13.01,2013-09-06 04:31:00,
2013-09-06 00:36:00,72.4,67.6,30.04,NW,306,4.0,5.0,85,0.00,,CLR,0.00,VWS V13.01,2013-09-06 04:36:00,
2013-09-06 00:41:00,72.5,68.1,30.04,WNW,301,2.0,4.0,86,0.00,,CLR,0.00,VWS V13.01,2013-09-06 04:41:00,
2013-09-06 00:46:00,72.5,68.1,30.04,NW,313,1.0,4.0,86,0.00,,CLR,0.00,VWS V13.01,2013-09-06 04:46:00,
2013-09-06 00:51:00,72.5,68.1,30.04,NW,304,1.0,4.0,86,0.00,,CLR,0.00,VWS V13.01,2013-09-06 04:51:00,
2013-09-06 00:56:00,72.4,68.0,30.04,NNW,345,1.0,3.0,86,0.00,,CLR,0.00,VWS V13.01,2013-09-06 04:56:00,
2013-09-06 01:01:00,72.3,67.9,30.05,NW,323,3.0,4.0,86,0.00,,CLR,0.00,VWS V13.01,2013-09-06 05:01:00,
2013-09-06 01:06:00,72.2,67.8,30.05,NW,310,3.0,3.0,86,0.00,,CLR,0.00,VWS V13.01,2013-09-06 05:06:00,
2013-09-06 01:11:00,72.2,67.8,30.04,NW,310,0.0,2.0,86,0.00,,CLR,0.00,VWS V13.01,2013-09-06 05:11:00,
2013-09-06 01:16:00,72.1,67.7,30.04,NW,311,2.0,3.0,86,0.00,,CLR,0.00,VWS V13.01,2013-09-06 05:16:00,
2013-09-06 01:21:00,72.0,67.9,30.04,NW,308,2.0,5.0,87,0.00,,CLR,0.00,VWS V13.01,2013-09-06 05:21:00,
2013-09-06 01:26:00,72.1,68.0,30.04,NW,311,1.0,3.0,87,0.00,,CLR,0.00,VWS V13.01,2013-09-06 05:26:00,
2013-09-06 01:31:00,72.0,67.9,30.04,NW,326,1.0,3.0,87,0.00,,CLR,0.00,VWS V13.01,2013-09-06 05:31:00,
2013-09-06 01:37:00,71.8,67.7,30.04,NW,311,2.0,4.0,87,0.00,,,0.00,VWS V13.01,2013-09-06 05:37:00,
2013-09-06 01:42:00,71.6,67.5,30.04,NW,312,0.0,2.0,87,0.00,,,0.00,VWS V13.01,2013-09-06 05:42:00,
2013-09-06 01:47:00,71.3,67.2,30.04,NW,312,0.0,0.0,87,0.00,,,0.00,VWS V13.01,2013-09-06 05:47:00,
2013-09-06 01:52:00,71.2,67.5,30.04,NW,311,0.0,0.0,88,0.00,,,0.00,VWS V13.01,2013-09-06 05:52:00,
2013-09-06 01:57:00,71.1,67.4,30.04,NW,312,0.0,0.0,88,0.00,,,0.00,VWS V13.01,2013-09-06 05:57:00,
2013-09-06 02:02:00,70.9,67.2,30.04,NW,311,0.0,0.0,88,0.00,,,0.00,VWS V13.01,2013-09-06 06:02:00,
2013-09-06 02:07:00,70.9,67.5,30.03,NW,312,0.0,0.0,89,0.00,,,0.00,VWS V13.01,2013-09-06 06:07:00,
2013-09-06 02:12:00,70.9,67.5,30.04,NW,312,0.0,0.0,89,0.00,,,0.00,VWS V13.01,2013-09-06 06:12:00,
2013-09-06 02:19:00,70.8,67.4,30.03,NW,312,0.0,0.0,89,0.00,,,0.00,VWS V13.01,2013-09-06 06:19:00,
2013-09-06 02:24:00,70.7,67.3,30.03,NW,312,0.0,0.0,89,0.00,,,0.00,VWS V13.01,2013-09-06 06:24:00,
2013-09-06 02:29:00,70.7,67.3,30.03,NW,311,0.0,0.0,89,0.00,,,0.00,VWS V13.01,2013-09-06 06:29:00,
2013-09-06 02:34:00,70.6,67.2,30.03,NW,312,0.0,0.0,89,0.00,,,0.00,VWS V13.01,2013-09-06 06:34:00,
2013-09-06 02:39:00,70.5,67.1,30.03,NW,311,1.0,1.0,89,0.00,,,0.00,VWS V13.01,2013-09-06 06:39:00,
2013-09-06 02:44:00,70.4,67.0,30.03,NW,311,0.0,3.0,89,0.00,,,0.00,VWS V13.01,2013-09-06 06:44:00,
2013-09-06 02:49:00,70.4,67.3,30.03,NW,311,0.0,0.0,90,0.00,,,0.00,VWS V13.01,2013-09-06 06:49:00,
2013-09-06 02:54:00,70.3,66.9,30.03,NW,311,0.0,0.0,89,0.00,,,0.00,VWS V13.01,2013-09-06 06:54:00,
2013-09-06 02:59:00,70.2,67.1,30.03,NW,312,0.0,0.0,90,0.00,,,0.00,VWS V13.01,2013-09-06 06:59:00,
2013-09-06 03:04:00,70.1,67.0,30.03,NW,311,0.0,0.0,90,0.00,,,0.00,VWS V13.01,2013-09-06 07:04:00,
2013-09-06 03:09:00,70.0,66.9,30.02,NW,312,0.0,0.0,90,0.00,,,0.00,VWS V13.01,2013-09-06 07:09:00,
2013-09-06 03:14:00,69.8,66.7,30.02,NW,312,0.0,0.0,90,0.00,,,0.00,VWS V13.01,2013-09-06 07:14:00,
2013-09-06 03:19:00,69.7,66.6,30.02,NW,312,0.0,0.0,90,0.00,,,0.00,VWS V13.01,2013-09-06 07:19:00,
2013-09-06 03:24:00,69.6,66.5,30.03,NW,311,0.0,0.0,90,0.00,,,0.00,VWS V13.01,2013-09-06 07:24:00,
2013-09-06 03:29:00,69.5,66.8,30.03,NW,312,0.0,0.0,91,0.00,,,0.00,VWS V13.01,2013-09-06 07:29:00,
2013-09-06 03:34:00,69.4,66.7,30.02,NW,312,0.0,0.0,91,0.00,,,0.00,VWS V13.01,2013-09-06 07:34:00,
2013-09-06 03:39:00,69.4,66.7,30.03,NW,312,0.0,0.0,91,0.00,,,0.00,VWS V13.01,2013-09-06 07:39:00,
2013-09-06 03:44:00,69.2,66.5,30.03,NW,312,0.0,0.0,91,0.00,,,0.00,VWS V13.01,2013-09-06 07:44:00,
2013-09-06 03:49:00,69.0,66.3,30.03,NW,312,0.0,0.0,91,0.00,,,0.00,VWS V13.01,2013-09-06 07:49:00,
2013-09-06 03:54:00,68.9,66.2,30.03,NW,312,0.0,0.0,91,0.00,,,0.00,VWS V13.01,2013-09-06 07:54:00,
2013-09-06 03:59:00,68.7,66.0,30.03,NW,311,0.0,0.0,91,0.00,,,0.00,VWS V13.01,2013-09-06 07:59:00,
2013-09-06 04:04:00,68.6,66.2,30.02,NW,312,0.0,0.0,92,0.00,,,0.00,VWS V13.01,2013-09-06 08:04:00,
2013-09-06 04:09:00,68.4,66.0,30.02,NW,311,0.0,0.0,92,0.00,,,0.00,VWS V13.01,2013-09-06 08:09:00,
2013-09-06 04:14:00,68.5,66.1,30.02,NW,312,0.0,0.0,92,0.00,,,0.00,VWS V13.01,2013-09-06 08:14:00,
2013-09-06 04:19:00,68.5,66.1,30.02,NW,312,0.0,0.0,92,0.00,,,0.00,VWS V13.01,2013-09-06 08:19:00,
2013-09-06 04:24:00,68.5,66.4,30.02,NW,312,0.0,0.0,93,0.00,,,0.00,VWS V13.01,2013-09-06 08:24:00,
2013-09-06 04:29:00,68.4,66.3,30.02,NW,311,0.0,0.0,93,0.00,,,0.00,VWS V13.01,2013-09-06 08:29:00,
2013-09-06 04:34:00,68.2,66.1,30.02,NW,312,0.0,0.0,93,0.00,,,0.00,VWS V13.01,2013-09-06 08:34:00,
2013-09-06 04:39:00,68.1,66.0,30.02,NW,312,0.0,0.0,93,0.00,,,0.00,VWS V13.01,2013-09-06 08:39:00,
2013-09-06 04:44:00,68.1,66.0,30.02,NW,311,0.0,0.0,93,0.00,,,0.00,VWS V13.01,2013-09-06 08:44:00,
2013-09-06 04:49:00,68.0,65.9,30.02,NW,311,0.0,0.0,93,0.00,,,0.00,VWS V13.01,2013-09-06 08:49:00,
2013-09-06 04:54:00,68.1,66.0,30.02,NW,311,0.0,0.0,93,0.00,,,0.00,VWS V13.01,2013-09-06 08:54:00,
2013-09-06 04:59:00,68.0,65.9,30.02,NW,312,0.0,0.0,93,0.00,,,0.00,VWS V13.01,2013-09-06 08:59:00,
2013-09-06 05:04:00,68.0,65.9,30.02,NW,312,0.0,0.0,93,0.00,,,0.00,VWS V13.01,2013-09-06 09:04:00,
2013-09-06 05:09:00,68.0,65.9,30.02,NW,311,0.0,0.0,93,0.00,,,0.00,VWS V13.01,2013-09-06 09:09:00,
2013-09-06 05:14:00,68.1,66.0,30.02,NW,312,0.0,2.0,93,0.00,,,0.00,VWS V13.01,2013-09-06 09:14:00,
2013-09-06 05:19:00,68.1,66.0,30.02,NW,312,0.0,0.0,93,0.00,,,0.00,VWS V13.01,2013-09-06 09:19:00,
2013-09-06 05:24:00,68.0,66.2,30.02,NW,312,0.0,0.0,94,0.00,,,0.00,VWS V13.01,2013-09-06 09:24:00,
2013-09-06 05:29:00,68.0,66.2,30.02,NW,312,0.0,0.0,94,0.00,,,0.00,VWS V13.01,2013-09-06 09:29:00,
2013-09-06 05:34:00,68.0,66.2,30.02,NW,311,0.0,0.0,94,0.00,,,0.00,VWS V13.01,2013-09-06 09:34:00,
2013-09-06 05:39:00,67.9,66.1,30.02,NW,312,0.0,0.0,94,0.00,,,0.00,VWS V13.01,2013-09-06 09:39:00,
2013-09-06 05:44:00,67.9,65.8,30.02,NW,311,1.0,1.0,93,0.00,,,0.00,VWS V13.01,2013-09-06 09:44:00,
2013-09-06 05:49:00,67.9,65.8,30.03,NW,311,2.0,3.0,93,0.00,,,0.00,VWS V13.01,2013-09-06 09:49:00,
2013-09-06 05:54:00,68.0,66.2,30.02,NW,311,0.0,3.0,94,0.00,,,0.00,VWS V13.01,2013-09-06 09:54:00,
2013-09-06 05:59:00,68.0,66.2,30.02,NW,312,1.0,3.0,94,0.00,,,0.00,VWS V13.01,2013-09-06 09:59:00,
2013-09-06 06:04:00,68.0,66.2,30.03,NW,312,0.0,2.0,94,0.00,,,0.00,VWS V13.01,2013-09-06 10:04:00,
2013-09-06 06:09:00,68.0,66.2,30.03,NW,312,0.0,0.0,94,0.00,,,0.00,VWS V13.01,2013-09-06 10:09:00,
2013-09-06 06:14:00,68.0,66.2,30.03,NW,312,0.0,0.0,94,0.00,,,0.00,VWS V13.01,2013-09-06 10:14:00,
2013-09-06 06:19:00,67.9,66.1,30.02,NW,312,0.0,0.0,94,0.00,,,0.00,VWS V13.01,2013-09-06 10:19:00,
2013-09-06 06:24:00,67.9,66.1,30.03,NW,312,0.0,2.0,94,0.00,,,0.00,VWS V13.01,2013-09-06 10:24:00,
2013-09-06 06:29:00,67.8,66.0,30.03,NW,312,0.0,0.0,94,0.00,,,0.00,VWS V13.01,2013-09-06 10:29:00,
2013-09-06 06:35:00,67.9,66.1,30.03,NW,311,0.0,0.0,94,0.00,,,0.00,VWS V13.01,2013-09-06 10:35:00,
2013-09-06 06:40:00,67.9,66.1,30.03,NW,311,0.0,0.0,94,0.00,,,0.00,VWS V13.01,2013-09-06 10:40:00,
2013-09-06 06:45:00,67.8,66.0,30.03,NW,311,0.0,0.0,94,0.00,,,0.00,VWS V13.01,2013-09-06 10:45:00,
2013-09-06 06:50:00,67.8,66.0,30.04,NW,312,0.0,0.0,94,0.00,,,0.00,VWS V13.01,2013-09-06 10:50:00,
2013-09-06 06:55:00,67.8,66.0,30.04,NW,311,0.0,0.0,94,0.00,,,0.00,VWS V13.01,2013-09-06 10:55:00,
2013-09-06 07:00:00,67.7,65.9,30.04,NW,312,0.0,0.0,94,0.00,,,0.00,VWS V13.01,2013-09-06 11:00:00,
2013-09-06 07:05:00,67.7,65.9,30.05,NW,312,2.0,2.0,94,0.00,,,0.00,VWS V13.01,2013-09-06 11:05:00,
2013-09-06 07:10:00,67.7,65.9,30.05,NW,312,0.0,0.0,94,0.00,,,0.00,VWS V13.01,2013-09-06 11:10:00,
2013-09-06 07:15:00,67.7,65.9,30.05,NW,312,0.0,0.0,94,0.00,,,0.00,VWS V13.01,2013-09-06 11:15:00,
2013-09-06 07:20:00,67.7,65.9,30.05,NW,312,0.0,0.0,94,0.00,,,0.00,VWS V13.01,2013-09-06 11:20:00,
2013-09-06 07:25:00,67.7,65.9,30.05,NW,312,0.0,0.0,94,0.00,,,0.00,VWS V13.01,2013-09-06 11:25:00,
2013-09-06 07:30:00,67.7,65.9,30.05,NW,312,0.0,0.0,94,0.00,,,0.00,VWS V13.01,2013-09-06 11:30:00,
2013-09-06 07:35:00,67.7,65.9,30.05,NW,312,0.0,0.0,94,0.00,,,0.00,VWS V13.01,2013-09-06 11:35:00,
2013-09-06 07:40:00,67.7,65.9,30.05,NW,312,0.0,0.0,94,0.00,,,0.00,VWS V13.01,2013-09-06 11:40:00,
2013-09-06 07:45:00,67.8,66.0,30.06,NW,312,0.0,0.0,94,0.00,,,0.00,VWS V13.01,2013-09-06 11:45:00,
2013-09-06 07:50:00,67.9,66.1,30.06,NW,312,0.0,0.0,94,0.00,,,0.00,VWS V13.01,2013-09-06 11:50:00,
2013-09-06 07:55:00,68.0,66.2,30.06,NW,312,0.0,0.0,94,0.00,,,0.00,VWS V13.01,2013-09-06 11:55:00,
2013-09-06 08:00:00,68.3,66.5,30.06,NW,311,0.0,0.0,94,0.00,,,0.00,VWS V13.01,2013-09-06 12:00:00,
2013-09-06 08:05:00,68.6,66.8,30.06,NW,311,0.0,0.0,94,0.00,,,0.00,VWS V13.01,2013-09-06 12:05:00,
2013-09-06 08:10:00,68.9,67.1,30.06,NE,47,0.0,0.0,94,0.00,,,0.00,VWS V13.01,2013-09-06 12:10:00,
2013-09-06 08:15:00,69.3,67.5,30.06,NE,46,0.0,0.0,94,0.00,,,0.00,VWS V13.01,2013-09-06 12:15:00,
2013-09-06 08:20:00,69.6,67.8,30.06,NE,51,0.0,1.0,94,0.00,,,0.00,VWS V13.01,2013-09-06 12:20:00,
2013-09-06 08:25:00,69.9,68.1,30.06,ENE,61,2.0,3.0,94,0.00,,,0.00,VWS V13.01,2013-09-06 12:25:00,
2013-09-06 08:30:00,70.0,67.9,30.06,NE,51,1.0,1.0,93,0.00,,,0.00,VWS V13.01,2013-09-06 12:30:00,
2013-09-06 08:35:00,70.1,68.0,30.07,ENE,69,2.0,2.0,93,0.00,,,0.00,VWS V13.01,2013-09-06 12:35:00,
2013-09-06 08:40:00,70.2,68.1,30.07,NE,40,4.0,5.0,93,0.00,,,0.00,VWS V13.01,2013-09-06 12:40:00,
2013-09-06 08:45:00,70.3,68.2,30.07,NE,55,2.0,4.0,93,0.00,,,0.00,VWS V13.01,2013-09-06 12:45:00,
2013-09-06 08:50:00,70.5,68.1,30.07,NE,55,2.0,4.0,92,0.00,,,0.00,VWS V13.01,2013-09-06 12:50:00,
2013-09-06 08:55:00,70.7,68.3,30.07,NE,55,3.0,3.0,92,0.00,,,0.00,VWS V13.01,2013-09-06 12:55:00,
2013-09-06 09:00:00,71.0,68.6,30.07,ENE,61,3.0,4.0,92,0.00,,,0.00,VWS V13.01,2013-09-06 13:00:00,
2013-09-06 09:05:00,71.3,68.9,30.07,ENE,76,2.0,3.0,92,0.00,,,0.00,VWS V13.01,2013-09-06 13:05:00,
2013-09-06 09:10:00,71.8,69.0,30.07,ENE,75,5.0,5.0,91,0.00,,,0.00,VWS V13.01,2013-09-06 13:10:00,
2013-09-06 09:15:00,72.1,69.3,30.07,ENE,65,2.0,3.0,91,0.00,,,0.00,VWS V13.01,2013-09-06 13:15:00,
2013-09-06 09:20:00,72.5,69.4,30.07,NE,45,6.0,6.0,90,0.00,,,0.00,VWS V13.01,2013-09-06 13:20:00,
2013-09-06 09:25:00,73.1,69.7,30.07,ENE,78,4.0,5.0,89,0.00,,,0.00,VWS V13.01,2013-09-06 13:25:00,
2013-09-06 09:30:00,73.7,70.3,30.07,ENE,65,5.0,7.0,89,0.00,,,0.00,VWS V13.01,2013-09-06 13:30:00,
2013-09-06 09:35:00,73.9,69.8,30.07,East,84,7.0,9.0,87,0.00,,,0.00,VWS V13.01,2013-09-06 13:35:00,
2013-09-06 09:40:00,74.1,70.0,30.07,ENE,69,5.0,6.0,87,0.00,,,0.00,VWS V13.01,2013-09-06 13:40:00,
2013-09-06 09:45:00,74.2,70.1,30.07,ENE,63,5.0,6.0,87,0.00,,,0.00,VWS V13.01,2013-09-06 13:45:00,
2013-09-06 09:50:00,74.4,70.3,30.07,East,84,5.0,6.0,87,0.00,,,0.00,VWS V13.01,2013-09-06 13:50:00,
2013-09-06 09:55:00,74.8,70.7,30.07,ENE,77,4.0,5.0,87,0.00,,,0.00,VWS V13.01,2013-09-06 13:55:00,
2013-09-06 10:00:00,75.2,70.7,30.07,ENE,69,4.0,4.0,86,0.00,,,0.00,VWS V13.01,2013-09-06 14:00:00,
2013-09-06 10:05:00,75.7,71.2,30.08,East,90,6.0,7.0,86,0.00,,,0.00,VWS V13.01,2013-09-06 14:05:00,
2013-09-06 10:10:00,76.1,70.9,30.08,East,94,5.0,5.0,84,0.00,,,0.00,VWS V13.01,2013-09-06 14:10:00,
2013-09-06 10:15:00,76.5,71.3,30.08,NE,54,9.0,11.0,84,0.00,,,0.00,VWS V13.01,2013-09-06 14:15:00,
2013-09-06 10:20:00,76.9,71.7,30.07,ENE,74,3.0,7.0,84,0.00,,,0.00,VWS V13.01,2013-09-06 14:20:00,
2013-09-06 10:25:00,77.6,71.7,30.08,East,96,5.0,6.0,82,0.00,,,0.00,VWS V13.01,2013-09-06 14:25:00,
2013-09-06 10:30:00,78.2,72.3,30.08,ENE,72,4.0,5.0,82,0.00,,,0.00,VWS V13.01,2013-09-06 14:30:00,
2013-09-06 10:35:00,78.7,72.4,30.07,East,79,5.0,6.0,81,0.00,,CLR,0.00,VWS V13.01,2013-09-06 14:35:00,
2013-09-06 10:40:00,78.4,72.1,30.08,ENE,67,4.0,5.0,81,0.00,,CLR,0.00,VWS V13.01,2013-09-06 14:40:00,
2013-09-06 10:45:00,78.4,72.1,30.08,NE,51,4.0,6.0,81,0.00,,CLR,0.00,VWS V13.01,2013-09-06 14:45:00,
2013-09-06 10:50:00,78.6,72.3,30.08,ENE,71,4.0,6.0,81,0.00,,CLR,0.00,VWS V13.01,2013-09-06 14:50:00,
2013-09-06 10:55:00,78.8,72.1,30.08,ENE,72,12.0,12.0,80,0.00,,CLR,0.00,VWS V13.01,2013-09-06 14:55:00,
2013-09-06 11:00:00,79.1,72.0,30.08,East,92,9.0,10.0,79,0.00,,CLR,0.00,VWS V13.01,2013-09-06 15:00:00,
2013-09-06 11:05:00,79.8,72.7,30.08,NE,49,2.0,4.0,79,0.00,,CLR,0.00,VWS V13.01,2013-09-06 15:05:00,
2013-09-06 11:10:00,80.3,72.4,30.08,ENE,71,7.0,7.0,77,0.00,,CLR,0.00,VWS V13.01,2013-09-06 15:10:00,
2013-09-06 11:15:00,80.3,72.4,30.08,ENE,63,9.0,12.0,77,0.00,,CLR,0.00,VWS V13.01,2013-09-06 15:15:00,
2013-09-06 11:20:00,80.3,72.4,30.08,NE,53,5.0,5.0,77,0.00,,CLR,0.00,VWS V13.01,2013-09-06 15:20:00,
2013-09-06 11:25:00,80.7,72.4,30.08,ENE,76,3.0,6.0,76,0.00,,CLR,0.00,VWS V13.01,2013-09-06 15:25:00,
2013-09-06 11:30:00,80.9,73.0,30.08,ENE,63,5.0,9.0,77,0.00,,CLR,0.00,VWS V13.01,2013-09-06 15:30:00,
2013-09-06 11:35:00,80.9,72.2,30.08,ENE,77,5.0,10.0,75,0.00,,CLR,0.00,VWS V13.01,2013-09-06 15:35:00,
2013-09-06 11:40:00,80.7,72.4,30.08,NE,44,5.0,6.0,76,0.00,,CLR,0.00,VWS V13.01,2013-09-06 15:40:00,
2013-09-06 11:45:00,81.0,72.3,30.08,East,82,3.0,5.0,75,0.00,,CLR,0.00,VWS V13.01,2013-09-06 15:45:00,
2013-09-06 11:50:00,81.4,72.7,30.08,ENE,72,7.0,12.0,75,0.00,,CLR,0.00,VWS V13.01,2013-09-06 15:50:00,
2013-09-06 11:55:00,81.4,72.3,30.08,ENE,59,9.0,10.0,74,0.00,,CLR,0.00,VWS V13.01,2013-09-06 15:55:00,
2013-09-06 12:00:00,81.6,72.1,30.08,ENE,65,5.0,9.0,73,0.00,,CLR,0.00,VWS V13.01,2013-09-06 16:00:00,
2013-09-06 12:05:00,81.9,72.8,30.07,ENE,74,11.0,11.0,74,0.00,,CLR,0.00,VWS V13.01,2013-09-06 16:05:00,
2013-09-06 12:10:00,82.2,72.3,30.07,ENE,57,3.0,8.0,72,0.00,,CLR,0.00,VWS V13.01,2013-09-06 16:10:00,
2013-09-06 12:15:00,82.6,72.7,30.07,NNE,25,4.0,4.0,72,0.00,,CLR,0.00,VWS V13.01,2013-09-06 16:15:00,
2013-09-06 12:20:00,82.9,72.5,30.07,ENE,75,5.0,9.0,71,0.00,,CLR,0.00,VWS V13.01,2013-09-06 16:20:00,
2013-09-06 12:25:00,82.6,71.8,30.07,ENE,75,1.0,5.0,70,0.00,,CLR,0.00,VWS V13.01,2013-09-06 16:25:00,
2013-09-06 12:30:00,82.9,72.1,30.07,NE,56,2.0,5.0,70,0.00,,CLR,0.00,VWS V13.01,2013-09-06 16:30:00,
2013-09-06 12:35:00,82.8,72.0,30.07,ESE,107,5.0,7.0,70,0.00,,CLR,0.00,VWS V13.01,2013-09-06 16:35:00,
2013-09-06 12:40:00,83.0,71.8,30.07,ESE,123,3.0,3.0,69,0.00,,CLR,0.00,VWS V13.01,2013-09-06 16:40:00,
2013-09-06 12:45:00,82.9,72.1,30.07,East,92,4.0,7.0,70,0.00,,CLR,0.00,VWS V13.01,2013-09-06 16:45:00,
2013-09-06 12:50:00,83.2,72.0,30.07,East,96,7.0,11.0,69,0.00,,CLR,0.00,VWS V13.01,2013-09-06 16:50:00,
2013-09-06 12:55:00,83.4,71.7,30.07,East,79,4.0,11.0,68,0.00,,CLR,0.00,VWS V13.01,2013-09-06 16:55:00,
2013-09-06 13:00:00,83.6,71.9,30.06,NNE,23,8.0,9.0,68,0.00,,CLR,0.00,VWS V13.01,2013-09-06 17:00:00,
2013-09-06 13:05:00,84.0,72.3,30.06,SE,128,5.0,5.0,68,0.00,,CLR,0.00,VWS V13.01,2013-09-06 17:05:00,
2013-09-06 13:10:00,84.0,71.0,30.06,SE,133,6.0,12.0,65,0.00,,CLR,0.00,VWS V13.01,2013-09-06 17:10:00,
2013-09-06 13:15:00,83.9,70.9,30.06,East,87,4.0,6.0,65,0.00,,CLR,0.00,VWS V13.01,2013-09-06 17:15:00,
2013-09-06 13:20:00,84.7,71.2,30.06,ESE,114,12.0,14.0,64,0.00,,CLR,0.00,VWS V13.01,2013-09-06 17:20:00,
2013-09-06 13:25:00,84.5,71.0,30.05,SW,218,0.0,3.0,64,0.00,,CLR,0.00,VWS V13.01,2013-09-06 17:25:00,
2013-09-06 13:30:00,84.9,70.9,30.06,East,95,8.0,10.0,63,0.00,,CLR,0.00,VWS V13.01,2013-09-06 17:30:00,
2013-09-06 13:35:00,84.4,70.4,30.06,East,98,5.0,7.0,63,0.00,,CLR,0.00,VWS V13.01,2013-09-06 17:35:00,
2013-09-06 13:40:00,84.6,70.6,30.05,ESE,113,5.0,7.0,63,0.00,,CLR,0.00,VWS V13.01,2013-09-06 17:40:00,
2013-09-06 13:45:00,84.3,70.3,30.05,SE,127,0.0,4.0,63,0.00,,CLR,0.00,VWS V13.01,2013-09-06 17:45:00,
2013-09-06 13:50:00,84.0,70.5,30.05,NE,36,3.0,4.0,64,0.00,,CLR,0.00,VWS V13.01,2013-09-06 17:50:00,
2013-09-06 13:55:00,84.9,71.4,30.05,ENE,75,5.0,11.0,64,0.00,,CLR,0.00,VWS V13.01,2013-09-06 17:55:00,
2013-09-06 14:00:00,84.9,71.4,30.05,East,83,4.0,7.0,64,0.00,,CLR,0.00,VWS V13.01,2013-09-06 18:00:00,
2013-09-06 14:05:00,84.9,70.9,30.05,ENE,75,7.0,10.0,63,0.00,,CLR,0.00,VWS V13.01,2013-09-06 18:05:00,
2013-09-06 14:10:00,84.7,71.2,30.05,NNE,28,3.0,7.0,64,0.00,,CLR,0.00,VWS V13.01,2013-09-06 18:10:00,
2013-09-06 14:15:00,84.4,71.4,30.05,NE,48,0.0,1.0,65,0.00,,CLR,0.00,VWS V13.01,2013-09-06 18:15:00,
2013-09-06 14:20:00,85.0,70.1,30.04,East,95,2.0,6.0,61,0.00,,CLR,0.00,VWS V13.01,2013-09-06 18:20:00,
2013-09-06 14:25:00,85.5,70.5,30.04,SSE,147,2.0,7.0,61,0.00,,CLR,0.00,VWS V13.01,2013-09-06 18:25:00,
2013-09-06 14:30:00,85.2,70.7,30.04,East,81,3.0,6.0,62,0.00,,CLR,0.00,VWS V13.01,2013-09-06 18:30:00,
2013-09-06 14:35:00,84.7,70.2,30.04,East,97,2.0,2.0,62,0.00,,FEW042,0.00,VWS V13.01,2013-09-06 18:35:00,
2013-09-06 14:40:00,84.9,70.4,30.04,SE,139,0.0,4.0,62,0.00,,FEW042,0.00,VWS V13.01,2013-09-06 18:40:00,
2013-09-06 14:45:00,85.5,71.5,30.04,ENE,62,7.0,7.0,63,0.00,,FEW042,0.00,VWS V13.01,2013-09-06 18:45:00,
2013-09-06 14:50:00,85.3,70.8,30.03,ENE,63,4.0,6.0,62,0.00,,FEW042,0.00,VWS V13.01,2013-09-06 18:50:00,
2013-09-06 14:56:00,85.2,71.7,30.03,ENE,75,4.0,7.0,64,0.00,,FEW042,0.00,VWS V13.01,2013-09-06 18:56:00,
2013-09-06 15:01:00,85.0,71.5,30.03,ENE,69,1.0,3.0,64,0.00,,FEW042,0.00,VWS V13.01,2013-09-06 19:01:00,
2013-09-06 15:06:00,85.1,71.1,30.03,NE,35,0.0,4.0,63,0.00,,FEW042,0.00,VWS V13.01,2013-09-06 19:06:00,
2013-09-06 15:11:00,85.3,70.8,30.02,ENE,78,5.0,5.0,62,0.00,,FEW042,0.00,VWS V13.01,2013-09-06 19:11:00,
2013-09-06 15:16:00,85.2,70.7,30.02,ENE,59,1.0,6.0,62,0.00,,FEW042,0.00,VWS V13.01,2013-09-06 19:16:00,
2013-09-06 15:21:00,85.5,71.0,30.02,NE,53,0.0,0.0,62,0.00,,FEW042,0.00,VWS V13.01,2013-09-06 19:21:00,
2013-09-06 15:26:00,85.7,71.7,30.02,East,84,3.0,3.0,63,0.00,,FEW042,0.00,VWS V13.01,2013-09-06 19:26:00,
2013-09-06 15:31:00,85.3,71.3,30.02,NE,56,4.0,5.0,63,0.00,,FEW042,0.00,VWS V13.01,2013-09-06 19:31:00,
2013-09-06 15:36:00,85.7,71.2,30.01,ESE,105,0.0,0.0,62,0.00,,FEW045,0.00,VWS V13.01,2013-09-06 19:36:00,
2013-09-06 15:41:00,86.5,71.5,30.01,ESE,117,6.0,6.0,61,0.00,,FEW045,0.00,VWS V13.01,2013-09-06 19:41:00,
2013-09-06 15:46:00,86.6,71.6,30.01,East,84,9.0,9.0,61,0.00,,FEW045,0.00,VWS V13.01,2013-09-06 19:46:00,
2013-09-06 15:51:00,86.1,71.6,30.01,NE,52,5.0,5.0,62,0.00,,FEW045,0.00,VWS V13.01,2013-09-06 19:51:00,
2013-09-06 15:56:00,85.7,71.2,30.01,ENE,78,7.0,7.0,62,0.00,,FEW045,0.00,VWS V13.01,2013-09-06 19:56:00,
2013-09-06 16:01:00,85.4,70.4,30.01,East,84,0.0,0.0,61,0.00,,FEW045,0.00,VWS V13.01,2013-09-06 20:01:00,
2013-09-06 16:06:00,85.7,70.2,30.01,ENE,72,5.0,6.0,60,0.00,,FEW045,0.00,VWS V13.01,2013-09-06 20:06:00,
2013-09-06 16:11:00,86.1,69.6,30.01,ESE,106,2.0,6.0,58,0.00,,FEW045,0.00,VWS V13.01,2013-09-06 20:11:00,
2013-09-06 16:16:00,86.4,70.4,30.00,NE,49,5.0,10.0,59,0.00,,FEW045,0.00,VWS V13.01,2013-09-06 20:16:00,
2013-09-06 16:21:00,86.5,71.0,30.00,ENE,71,3.0,5.0,60,0.00,,FEW045,0.00,VWS V13.01,2013-09-06 20:21:00,
2013-09-06 16:26:00,86.6,70.6,30.00,NE,39,7.0,10.0,59,0.00,,FEW045,0.00,VWS V13.01,2013-09-06 20:26:00,
2013-09-06 16:31:00,86.1,70.1,30.00,East,81,5.0,7.0,59,0.00,,FEW045,0.00,VWS V13.01,2013-09-06 20:31:00,
2013-09-06 16:36:00,85.5,70.5,30.00,East,82,5.0,6.0,61,0.00,,CLR,0.00,VWS V13.01,2013-09-06 20:36:00,
2013-09-06 16:41:00,85.3,70.3,30.00,ENE,71,3.0,4.0,61,0.00,,CLR,0.00,VWS V13.01,2013-09-06 20:41:00,
2013-09-06 16:46:00,85.7,69.7,29.99,ESE,113,0.0,2.0,59,0.00,,CLR,0.00,VWS V13.01,2013-09-06 20:46:00,
2013-09-06 16:51:00,86.2,70.7,29.99,ENE,72,4.0,5.0,60,0.00,,CLR,0.00,VWS V13.01,2013-09-06 20:51:00,
2013-09-06 16:56:00,86.6,71.1,29.99,ENE,57,3.0,6.0,60,0.00,,CLR,0.00,VWS V13.01,2013-09-06 20:56:00,
2013-09-06 17:01:00,86.7,70.7,29.99,East,92,4.0,7.0,59,0.00,,CLR,0.00,VWS V13.01,2013-09-06 21:01:00,
2013-09-06 17:06:00,86.3,70.3,29.99,ENE,62,6.0,7.0,59,0.00,,CLR,0.00,VWS V13.01,2013-09-06 21:06:00,
2013-09-06 17:11:00,85.9,70.9,29.99,East,83,2.0,3.0,61,0.00,,CLR,0.00,VWS V13.01,2013-09-06 21:11:00,
2013-09-06 17:16:00,85.5,70.5,29.99,NE,51,4.0,6.0,61,0.00,,CLR,0.00,VWS V13.01,2013-09-06 21:16:00,
2013-09-06 17:21:00,85.3,70.8,29.99,ENE,64,0.0,3.0,62,0.00,,CLR,0.00,VWS V13.01,2013-09-06 21:21:00,
2013-09-06 17:26:00,85.3,70.8,29.99,NE,42,1.0,5.0,62,0.00,,CLR,0.00,VWS V13.01,2013-09-06 21:26:00,
2013-09-06 17:31:00,85.3,70.8,29.99,NE,54,2.0,4.0,62,0.00,,CLR,0.00,VWS V13.01,2013-09-06 21:31:00,
2013-09-06 17:36:00,85.4,70.9,29.99,ENE,57,3.0,4.0,62,0.00,,FEW049,0.00,VWS V13.01,2013-09-06 21:36:00,
2013-09-06 17:41:00,85.8,70.3,29.99,NNE,30,4.0,5.0,60,0.00,,FEW049,0.00,VWS V13.01,2013-09-06 21:41:00,
2013-09-06 17:46:00,85.9,70.9,29.99,East,80,0.0,3.0,61,0.00,,FEW049,0.00,VWS V13.01,2013-09-06 21:46:00,
2013-09-06 17:51:00,85.9,70.9,29.98,East,81,8.0,9.0,61,0.00,,FEW049,0.00,VWS V13.01,2013-09-06 21:51:00,
2013-09-06 17:56:00,85.6,70.6,29.98,ENE,57,2.0,7.0,61,0.00,,FEW049,0.00,VWS V13.01,2013-09-06 21:56:00,
2013-09-06 18:01:00,85.4,69.9,29.98,ENE,61,7.0,8.0,60,0.00,,FEW049,0.00,VWS V13.01,2013-09-06 22:01:00,
2013-09-06 18:06:00,85.2,70.2,29.99,ENE,77,5.0,7.0,61,0.00,,FEW049,0.00,VWS V13.01,2013-09-06 22:06:00,
2013-09-06 18:11:00,85.1,70.2,29.99,ENE,61,1.0,5.0,61,0.00,,FEW049,0.00,VWS V13.01,2013-09-06 22:11:00,
2013-09-06 18:16:00,85.3,70.3,29.99,ENE,68,0.0,3.0,61,0.00,,FEW049,0.00,VWS V13.01,2013-09-06 22:16:00,
2013-09-06 18:21:00,85.2,70.2,29.99,NE,41,3.0,4.0,61,0.00,,FEW049,0.00,VWS V13.01,2013-09-06 22:21:00,
2013-09-06 18:26:00,85.1,70.2,29.99,ENE,65,3.0,4.0,61,0.00,,FEW049,0.00,VWS V13.01,2013-09-06 22:26:00,
2013-09-06 18:31:00,85.2,70.2,29.99,ENE,61,1.0,3.0,61,0.00,,FEW049,0.00,VWS V13.01,2013-09-06 22:31:00,
2013-09-06 18:36:00,85.1,70.6,29.99,ENE,61,0.0,1.0,62,0.00,,CLR,0.00,VWS V13.01,2013-09-06 22:36:00,
2013-09-06 18:41:00,84.9,70.0,29.99,NE,46,1.0,3.0,61,0.00,,CLR,0.00,VWS V13.01,2013-09-06 22:41:00,
2013-09-06 18:46:00,84.8,70.3,29.99,ENE,63,0.0,2.0,62,0.00,,CLR,0.00,VWS V13.01,2013-09-06 22:46:00,
2013-09-06 18:51:00,84.6,70.6,29.99,ENE,72,0.0,0.0,63,0.00,,CLR,0.00,VWS V13.01,2013-09-06 22:51:00,
2013-09-06 18:56:00,84.4,70.4,29.99,ENE,72,0.0,0.0,63,0.00,,CLR,0.00,VWS V13.01,2013-09-06 22:56:00,
2013-09-06 19:01:00,84.2,70.7,29.99,ENE,72,0.0,0.0,64,0.00,,CLR,0.00,VWS V13.01,2013-09-06 23:01:00,
2013-09-06 19:06:00,84.1,70.6,29.99,ENE,72,0.0,0.0,64,0.00,,CLR,0.00,VWS V13.01,2013-09-06 23:06:00,
2013-09-06 19:11:00,83.9,70.9,29.99,ENE,72,0.0,0.0,65,0.00,,CLR,0.00,VWS V13.01,2013-09-06 23:11:00,
2013-09-06 19:16:00,83.6,71.1,29.99,ENE,72,0.0,0.0,66,0.00,,CLR,0.00,VWS V13.01,2013-09-06 23:16:00,
2013-09-06 19:21:00,83.2,70.7,29.99,ENE,69,0.0,0.0,66,0.00,,CLR,0.00,VWS V13.01,2013-09-06 23:21:00,
2013-09-06 19:26:00,82.8,71.2,29.99,ENE,69,0.0,0.0,68,0.00,,CLR,0.00,VWS V13.01,2013-09-06 23:26:00,
2013-09-06 19:31:00,82.4,70.8,29.99,ENE,69,0.0,0.0,68,0.00,,CLR,0.00,VWS V13.01,2013-09-06 23:31:00,
2013-09-06 19:36:00,82.1,71.3,29.99,ENE,69,0.0,0.0,70,0.00,,CLR,0.00,VWS V13.01,2013-09-06 23:36:00,
2013-09-06 19:41:00,81.6,70.9,29.99,ENE,69,0.0,0.0,70,0.00,,CLR,0.00,VWS V13.01,2013-09-06 23:41:00,
2013-09-06 19:46:00,81.1,70.4,30.00,ENE,69,0.0,0.0,70,0.00,,CLR,0.00,VWS V13.01,2013-09-06 23:46:00,
2013-09-06 19:51:00,80.7,70.4,30.00,ENE,69,0.0,0.0,71,0.00,,CLR,0.00,VWS V13.01,2013-09-06 23:51:00,
2013-09-06 19:56:00,80.4,70.1,30.00,ENE,68,0.0,0.0,71,0.00,,CLR,0.00,VWS V13.01,2013-09-06 23:56:00,
2013-09-06 20:01:00,80.0,71.0,30.00,ENE,69,0.0,0.0,74,0.00,,CLR,0.00,VWS V13.01,2013-09-07 00:01:00,
2013-09-06 20:06:00,79.4,71.2,30.00,ENE,68,0.0,0.0,76,0.00,,CLR,0.00,VWS V13.01,2013-09-07 00:06:00,
2013-09-06 20:11:00,78.9,71.1,30.00,ENE,68,0.0,0.0,77,0.00,,CLR,0.00,VWS V13.01,2013-09-07 00:11:00,
2013-09-06 20:16:00,78.3,70.9,30.00,ENE,68,0.0,0.0,78,0.00,,CLR,0.00,VWS V13.01,2013-09-07 00:16:00,
2013-09-06 20:21:00,77.5,70.5,30.00,ENE,69,0.0,0.0,79,0.00,,CLR,0.00,VWS V13.01,2013-09-07 00:21:00,
2013-09-06 20:26:00,76.7,69.7,30.00,ENE,68,0.0,0.0,79,0.00,,CLR,0.00,VWS V13.01,2013-09-07 00:26:00,
2013-09-06 20:31:00,76.4,70.1,30.00,ENE,69,0.0,0.0,81,0.00,,CLR,0.00,VWS V13.01,2013-09-07 00:31:00,
2013-09-06 20:36:00,76.0,69.8,30.00,ENE,69,0.0,0.0,81,0.00,,CLR,0.00,VWS V13.01,2013-09-07 00:36:00,
2013-09-06 20:41:00,75.7,69.8,30.00,ENE,69,0.0,0.0,82,0.00,,CLR,0.00,VWS V13.01,2013-09-07 00:41:00,
2013-09-06 20:46:00,75.3,69.8,30.01,ENE,68,0.0,0.0,83,0.00,,CLR,0.00,VWS V13.01,2013-09-07 00:46:00,
2013-09-06 20:51:00,75.0,69.5,30.01,ENE,69,0.0,0.0,83,0.00,,CLR,0.00,VWS V13.01,2013-09-07 00:51:00,
2013-09-06 20:56:00,74.8,69.3,30.01,ENE,69,0.0,0.0,83,0.00,,CLR,0.00,VWS V13.01,2013-09-07 00:56:00,
2013-09-06 21:01:00,74.5,69.3,30.01,ENE,68,0.0,0.0,84,0.00,,CLR,0.00,VWS V13.01,2013-09-07 01:01:00,
2013-09-06 21:06:00,74.4,69.3,30.01,ENE,69,0.0,0.0,84,0.00,,CLR,0.00,VWS V13.01,2013-09-07 01:06:00,
2013-09-06 21:11:00,74.2,69.4,30.01,ENE,68,0.0,0.0,85,0.00,,CLR,0.00,VWS V13.01,2013-09-07 01:11:00,
2013-09-06 21:16:00,74.1,69.3,30.01,ENE,68,0.0,0.0,85,0.00,,CLR,0.00,VWS V13.01,2013-09-07 01:16:00,
2013-09-06 21:21:00,73.9,69.1,30.02,ENE,69,0.0,0.0,85,0.00,,CLR,0.00,VWS V13.01,2013-09-07 01:21:00,
2013-09-06 21:26:00,73.7,68.9,30.02,ENE,68,0.0,0.0,85,0.00,,CLR,0.00,VWS V13.01,2013-09-07 01:26:00,
2013-09-06 21:31:00,73.5,69.1,30.02,ENE,69,0.0,0.0,86,0.00,,CLR,0.00,VWS V13.01,2013-09-07 01:31:00,
2013-09-06 21:36:00,73.5,68.7,30.02,ENE,69,0.0,0.0,85,0.00,,CLR,0.00,VWS V13.01,2013-09-07 01:36:00,
2013-09-06 21:41:00,73.7,68.6,30.02,ENE,69,0.0,0.0,84,0.00,,CLR,0.00,VWS V13.01,2013-09-07 01:41:00,
2013-09-06 21:46:00,73.9,68.8,30.03,ENE,69,0.0,0.0,84,0.00,,CLR,0.00,VWS V13.01,2013-09-07 01:46:00,
2013-09-06 21:51:00,73.9,68.8,30.03,ENE,69,0.0,0.0,84,0.00,,CLR,0.00,VWS V13.01,2013-09-07 01:51:00,
2013-09-06 21:56:00,73.7,68.6,30.03,ENE,69,0.0,0.0,84,0.00,,CLR,0.00,VWS V13.01,2013-09-07 01:56:00,
2013-09-06 22:01:00,73.6,68.5,30.02,ENE,69,0.0,0.0,84,0.00,,CLR,0.00,VWS V13.01,2013-09-07 02:01:00,
2013-09-06 22:06:00,73.6,68.5,30.02,ENE,69,0.0,0.0,84,0.00,,CLR,0.00,VWS V13.01,2013-09-07 02:06:00,
2013-09-06 22:11:00,73.4,68.6,30.03,ENE,69,0.0,0.0,85,0.00,,CLR,0.00,VWS V13.01,2013-09-07 02:11:00,
2013-09-06 22:16:00,73.3,68.5,30.03,ENE,69,0.0,0.0,85,0.00,,CLR,0.00,VWS V13.01,2013-09-07 02:16:00,
2013-09-06 22:21:00,73.1,68.3,30.03,ENE,69,0.0,0.0,85,0.00,,CLR,0.00,VWS V13.01,2013-09-07 02:21:00,
2013-09-06 22:26:00,72.8,68.0,30.03,ENE,69,0.0,0.0,85,0.00,,CLR,0.00,VWS V13.01,2013-09-07 02:26:00,
2013-09-06 22:31:00,72.6,67.8,30.03,ENE,69,0.0,0.0,85,0.00,,CLR,0.00,VWS V13.01,2013-09-07 02:31:00,
2013-09-06 22:36:00,72.4,68.0,30.04,ENE,69,0.0,0.0,86,0.00,,CLR,0.00,VWS V13.01,2013-09-07 02:36:00,
2013-09-06 22:41:00,72.1,67.7,30.03,ENE,68,0.0,0.0,86,0.00,,CLR,0.00,VWS V13.01,2013-09-07 02:41:00,
2013-09-06 22:46:00,71.9,67.8,30.03,ENE,68,0.0,0.0,87,0.00,,CLR,0.00,VWS V13.01,2013-09-07 02:46:00,
2013-09-06 22:51:00,71.7,67.6,30.03,ENE,68,0.0,0.0,87,0.00,,CLR,0.00,VWS V13.01,2013-09-07 02:51:00,
2013-09-06 22:56:00,71.5,67.4,30.03,ENE,68,0.0,0.0,87,0.00,,CLR,0.00,VWS V13.01,2013-09-07 02:56:00,
2013-09-06 23:01:00,71.3,67.6,30.03,ENE,68,0.0,0.0,88,0.00,,CLR,0.00,VWS V13.01,2013-09-07 03:01:00,
2013-09-06 23:06:00,71.2,67.5,30.03,ENE,68,0.0,0.0,88,0.00,,CLR,0.00,VWS V13.01,2013-09-07 03:06:00,
2013-09-06 23:11:00,71.1,67.4,30.03,ENE,68,0.0,0.0,88,0.00,,CLR,0.00,VWS V13.01,2013-09-07 03:11:00,
2013-09-06 23:16:00,71.0,67.3,30.03,ENE,68,0.0,0.0,88,0.00,,CLR,0.00,VWS V13.01,2013-09-07 03:16:00,
2013-09-06 23:21:00,70.8,67.4,30.03,ENE,69,0.0,0.0,89,0.00,,CLR,0.00,VWS V13.01,2013-09-07 03:21:00,
2013-09-06 23:26:00,70.6,67.2,30.03,ENE,69,0.0,0.0,89,0.00,,CLR,0.00,VWS V13.01,2013-09-07 03:26:00,
2013-09-06 23:31:00,70.4,67.0,30.03,ENE,69,0.0,0.0,89,0.00,,CLR,0.00,VWS V13.01,2013-09-07 03:31:00,
2013-09-06 23:36:00,70.3,66.9,30.03,ENE,69,0.0,0.0,89,0.00,,,0.00,VWS V13.01,2013-09-07 03:36:00,
2013-09-06 23:41:00,70.2,66.8,30.03,ENE,69,0.0,0.0,89,0.00,,,0.00,VWS V13.01,2013-09-07 03:41:00,
2013-09-06 23:46:00,70.1,67.0,30.03,ENE,69,0.0,0.0,90,0.00,,,0.00,VWS V13.01,2013-09-07 03:46:00,
2013-09-06 23:51:00,70.0,66.9,30.03,ENE,68,0.0,0.0,90,0.00,,,0.00,VWS V13.01,2013-09-07 03:51:00,
2013-09-06 23:56:00,69.8,66.7,30.03,ENE,68,0.0,0.0,90,0.00,,,0.00,VWS V13.01,2013-09-07 03:56:00,